"2010-06-05 00:00:00",173260,6.99,312.5,2.278,0.525,23.99,111.0886,27.69,28.58,17.35,0,111.2,13.16,28.54,274.5
"2010-06-05 00:00:30",173261,6.47,314.3,1.103,0.464,23.93,111.0886,27.69,28.58,17.18,0,111.2,13.17,28.54,276.3
"2010-06-05 00:01:00",173262,5.728,313.5,1.353,0.216,23.94,111.0878,27.69,28.57,17.35,0,111.2,13.16,28.54,275.5
"2010-06-05 00:01:30",173263,6.61,304.8,5.416,0.455,24.04,111.0752,27.66,28.56,18.35,0,111.2,13.16,28.51,266.8
"2010-06-05 00:02:00",173264,6.107,311.6,4.967,0.257,24.02,111.0648,27.63,28.55,18.58,0,111.2,13.16,28.48,273.6
"2010-06-05 00:02:30",173265,5.724,316.1,2.488,0.633,24.02,111.0636,27.63,28.55,18.1,0,111.2,13.16,28.48,278.1
"2010-06-05 00:03:00",173266,6.241,319.1,4.086,0.907,24.02,111.0634,27.63,28.54,17.85,0,111.2,13.16,28.48,281.1
"2010-06-05 00:03:30",173267,5.895,317.8,5.125,0.536,24,111.0625,27.63,28.55,18.16,0,111.2,13.16,28.47,279.8
"2010-06-05 00:04:00",173268,5.836,317.7,7.594,0.4,24,111.0563,27.61,28.55,18.48,0,111.2,13.16,28.46,279.7
"2010-06-05 00:04:30",173269,6.085,317.2,4.501,0.307,24.03,111.0549,27.61,28.53,18,0,111.2,13.16,28.45,279.2
"2010-06-05 00:05:00",173270,6.97,307.8,2.813,0.328,24.1,111.0552,27.61,28.54,17.94,0,111.2,13.16,28.46,269.8
"2010-06-05 00:05:30",173271,7.528,309.2,2.095,0.325,24.1,111.0552,27.61,28.54,17.76,0,111.2,13.16,28.46,271.2
"2010-06-05 00:06:00",173272,7.287,312.8,3.22,0.251,24.07,111.0589,27.62,28.53,17.44,0,111.2,13.16,28.46,274.8
"2010-06-05 00:06:30",173273,7.708,311.9,1.495,0.364,24.1,111.0631,27.63,28.54,17.19,0,111.2,13.16,28.48,273.9
"2010-06-05 00:07:00",173274,7.564,312.2,3.924,0.296,23.97,111.0732,27.65,28.55,17.17,0,111.2,13.16,28.50,274.2
"2010-06-05 00:07:30",173275,6.728,315.1,1.966,0.288,23.8,111.0878,27.69,28.55,17.14,0,111.2,13.16,28.54,277.1
"2010-06-05 00:08:00",173276,7.238,313.3,1.708,0.364,23.67,111.0886,27.69,28.56,17.16,0,111.2,13.16,28.54,275.3
"2010-06-05 00:08:30",173277,7.26,312,2.392,0.402,23.64,111.0892,27.69,28.58,17.09,0,111.2,13.16,28.54,274.0
"2010-06-05 00:09:00",173278,8.02,313.4,1.531,0.298,23.6,111.0985,27.72,28.59,17.07,0,111.2,13.16,28.57,275.4
"2010-06-05 00:09:30",173279,7.738,310.7,1.264,0.222,23.62,111.1187,27.77,28.6,17,0,111.2,13.16,28.62,272.7
"2010-06-05 00:10:00",173280,7.85,310.1,1.81,0.336,23.59,111.1223,27.78,28.63,17.03,0,111.2,13.16,28.63,272.1
"2010-06-05 00:10:30",173281,7.59,311.6,1.334,0.185,23.65,111.1232,27.78,28.65,17.23,0,111.2,13.16,28.63,273.6
"2010-06-05 00:11:00",173282,6.411,312.5,3.277,0.675,23.81,111.1319,27.8,28.65,17.06,0,111.2,13.16,28.65,274.5
"2010-06-05 00:11:30",173283,6.717,316.3,2.778,0.417,23.76,111.1322,27.8,28.67,17.25,0,111.2,13.16,28.65,278.3
"2010-06-05 00:12:00",173284,7.933,308.7,2.53,0.494,23.83,111.1322,27.8,28.66,17.42,0,111.2,13.16,28.65,270.7
"2010-06-05 00:12:30",173285,7.465,307.5,3.084,0.31,23.79,111.1308,27.8,28.67,17.69,0,111.2,13.16,28.65,269.5
"2010-06-05 00:13:00",173286,7.328,312.4,3.236,0.285,23.78,111.1246,27.79,28.68,17.77,0,111.2,13.16,28.63,274.4
"2010-06-05 00:13:30",173287,7.139,310.5,2.599,0.387,23.83,111.1223,27.78,28.67,17.76,0,111.2,13.16,28.63,272.5
"2010-06-05 00:14:00",173288,7.025,311.8,4.84,0.535,23.83,111.1223,27.78,28.65,17.68,0,111.2,13.16,28.63,273.8
"2010-06-05 00:14:30",173289,7.205,309.9,5.51,0.314,23.79,111.1223,27.78,28.66,17.76,0,111.2,13.16,28.63,271.9
"2010-06-05 00:15:00",173290,6.895,318,3.546,0.608,23.68,111.1223,27.78,28.66,17.77,0,111.2,13.16,28.63,280.0
"2010-06-05 00:15:30",173291,7.317,305.9,6.248,0.481,23.66,111.1223,27.78,28.65,17.6,0,111.2,13.16,28.63,267.9
"2010-06-05 00:16:00",173292,7.125,308.3,3.092,0.436,23.63,111.1223,27.78,28.67,17.65,0,111.2,13.16,28.63,270.3
"2010-06-05 00:16:30",173293,7.741,309.3,5.181,0.56,23.77,111.1223,27.78,28.67,17.84,0,111.2,13.16,28.63,271.3
"2010-06-05 00:17:00",173294,8.16,303.5,2.316,0.405,23.87,111.1223,27.78,28.67,17.64,0,111.2,13.16,28.63,265.5
"2010-06-05 00:17:30",173295,8.64,308.5,2.949,0.286,23.86,111.1249,27.79,28.68,17.42,0,111.2,13.16,28.63,270.5
"2010-06-05 00:18:00",173296,8.86,311.8,3.689,0.336,23.9,111.126,27.79,28.7,17.55,0,111.2,13.16,28.64,273.8
"2010-06-05 00:18:30",173297,7.767,315.3,3.123,0.431,23.59,111.1237,27.78,28.68,18.17,0,111.2,13.16,28.63,277.3
"2010-06-05 00:19:00",173298,7.189,318.2,3.708,0.336,23.55,111.1226,27.78,28.66,18.1,0,111.2,13.16,28.63,280.2
"2010-06-05 00:19:30",173299,6.54,313.4,1.49,0.47,23.54,111.122,27.78,28.68,18.65,0,111.2,13.16,28.63,275.4
"2010-06-05 00:20:00",173300,6.088,314.5,2.602,0.432,23.54,111.122,27.78,28.67,19.36,0,111.2,13.16,28.63,276.5
"2010-06-05 00:20:30",173301,7.58,310.8,2.045,0.377,23.57,111.1205,27.77,28.65,18.48,0,111.2,13.16,28.62,272.8
"2010-06-05 00:21:00",173302,8.39,312.2,1.282,0.319,23.79,111.1208,27.78,28.66,17.19,0,111.2,13.16,28.62,274.2
"2010-06-05 00:21:30",173303,8.48,311.7,1.084,0.132,23.92,111.1231,27.78,28.67,17.12,0,111.2,13.16,28.63,273.7
"2010-06-05 00:22:00",173304,8.34,313.6,0.841,0.391,23.89,111.1355,27.81,28.67,17.34,0,111.2,13.16,28.66,275.6
"2010-06-05 00:22:30",173305,7.672,312,1.74,0.255,23.75,111.1324,27.81,28.68,18.11,0,111.2,13.16,28.65,274.0
"2010-06-05 00:23:00",173306,8.16,313.7,1.879,0.372,23.69,111.126,27.79,28.68,17.58,0,111.2,13.15,28.64,275.7
"2010-06-05 00:23:30",173307,8.02,312.9,3.605,0.352,23.76,111.1315,27.8,28.68,17.56,0,111.2,13.15,28.65,274.9
"2010-06-05 00:24:00",173308,7.194,309.9,1.891,0.325,23.69,111.1339,27.81,28.69,17.93,0,111.2,13.15,28.66,271.9
"2010-06-05 00:24:30",173309,7.701,308.3,5.137,0.259,23.77,111.1278,27.79,28.68,17.64,0,111.2,13.15,28.64,270.3
"2010-06-05 00:25:00",173310,7.967,308,2.166,0.244,23.92,111.1376,27.82,28.69,17.4,0,111.2,13.15,28.67,270.0
"2010-06-05 00:25:30",173311,8.69,314.1,2.368,0.264,23.86,111.1381,27.82,28.69,17.79,0,111.2,13.15,28.67,276.1
"2010-06-05 00:26:00",173312,8.9,310.2,2.014,0.209,24.06,111.1367,27.82,28.7,17.24,0,111.2,13.15,28.67,272.2
"2010-06-05 00:26:30",173313,9.45,309.4,2.092,0.409,24.12,111.1398,27.82,28.69,17.26,0,111.2,13.16,28.67,271.4
"2010-06-05 00:27:00",173314,9.04,307.6,2.046,0.264,24.1,111.1438,27.83,28.7,17.21,0,111.2,13.16,28.68,269.6
"2010-06-05 00:27:30",173315,9.16,307.4,2.364,0.24,24.08,111.146,27.84,28.71,17.27,0,111.2,13.16,28.69,269.4
"2010-06-05 00:28:00",173316,8.64,308.4,2.426,0.276,24.08,111.1425,27.83,28.7,17.31,0,111.2,13.16,28.68,270.4
"2010-06-05 00:28:30",173317,8.7,312.7,1.909,0.142,24.03,111.1447,27.84,28.7,17.3,0,111.2,13.16,28.69,274.7
"2010-06-05 00:29:00",173318,8.82,311.6,2.399,0.15,23.96,111.1451,27.84,28.7,17.17,0,111.2,13.16,28.69,273.6
"2010-06-05 00:29:30",173319,8.6,309.4,0.644,0.147,23.86,111.1479,27.85,28.71,17.2,0,111.2,13.16,28.69,271.4
"2010-06-05 00:30:00",173320,8.62,304.9,1.896,0.131,23.87,111.1465,27.84,28.72,17.21,0,111.2,13.16,28.69,266.9
"2010-06-05 00:30:30",173321,8.35,300.6,1.425,0.216,23.83,111.1494,27.85,28.73,17.16,0,111.2,13.16,28.70,262.6
"2010-06-05 00:31:00",173322,8.05,300.3,1.27,0.339,23.8,111.1562,27.87,28.74,17.13,0,111.2,13.16,28.72,262.3
"2010-06-05 00:31:30",173323,6.834,298.1,2.036,0.295,23.75,111.1799,27.93,28.75,17.12,0,111.2,13.16,28.78,260.1
"2010-06-05 00:32:00",173324,7.097,298.2,1.867,0.444,23.71,111.1804,27.93,28.76,17.12,0,111.2,13.16,28.78,260.2
"2010-06-05 00:32:30",173325,7.233,299.6,1.884,0.31,23.69,111.1814,27.93,28.78,17.06,0,111.2,13.16,28.78,261.6
"2010-06-05 00:33:00",173326,7.098,301,1.599,0.211,23.55,111.1873,27.95,28.8,17.14,0,111.2,13.16,28.80,263.0
"2010-06-05 00:33:30",173327,7.398,302.5,2.396,0.261,23.6,111.1928,27.96,28.81,17.07,0,111.2,13.16,28.81,264.5
"2010-06-05 00:34:00",173328,6.984,305.9,1.843,0.17,23.57,111.1967,27.97,28.81,17,0,111.2,13.15,28.82,267.9
"2010-06-05 00:34:30",173329,6.709,305.9,2.023,0.229,23.55,111.1927,27.96,28.83,16.98,0,111.2,13.15,28.81,267.9
"2010-06-05 00:35:00",173330,6.876,307.4,4.631,0.476,23.52,111.1896,27.95,28.82,16.95,0,111.2,13.15,28.80,269.4
"2010-06-05 00:35:30",173331,7.401,308.3,4.432,0.271,23.52,111.1867,27.95,28.84,17.05,0,111.2,13.15,28.79,270.3
"2010-06-05 00:36:00",173332,7.117,304.8,2.534,0.196,23.53,111.1857,27.94,28.84,17.03,0,111.2,13.15,28.79,266.8
"2010-06-05 00:36:30",173333,7.436,309.3,1.442,0.183,23.53,111.186,27.94,28.84,17.01,0,111.2,13.15,28.79,271.3
"2010-06-05 00:37:00",173334,7.408,308.9,0.951,0.153,23.52,111.186,27.94,28.84,17.02,0,111.2,13.15,28.79,270.9
"2010-06-05 00:37:30",173335,8.09,306.4,2.502,0.449,23.61,111.186,27.94,28.84,16.93,0,111.2,13.15,28.79,268.4
"2010-06-05 00:38:00",173336,7.651,306.9,2.475,0.336,23.68,111.186,27.94,28.86,16.99,0,111.2,13.15,28.79,268.9
"2010-06-05 00:38:30",173337,8.13,309.9,1.911,0.592,23.9,111.186,27.94,28.85,16.92,0,111.2,13.15,28.79,271.9
"2010-06-05 00:39:00",173338,8.84,305.6,3.111,0.35,24.02,111.186,27.94,28.84,16.76,0,111.2,13.15,28.79,267.6
"2010-06-05 00:39:30",173339,9.03,307.7,2.501,0.348,24.03,111.186,27.94,28.86,16.81,0,111.2,13.15,28.79,269.7
"2010-06-05 00:40:00",173340,8.94,308,1.116,0.205,24.07,111.186,27.94,28.85,16.76,0,111.2,13.15,28.79,270.0
"2010-06-05 00:40:30",173341,8.93,309.1,0.846,0.186,24.07,111.186,27.94,28.86,16.8,0,111.2,13.15,28.79,271.1
"2010-06-05 00:41:00",173342,8.63,309.9,1.501,0.385,24.09,111.1851,27.94,28.87,16.85,0,111.2,13.16,28.79,271.9
"2010-06-05 00:41:30",173343,8.84,306.6,1.434,0.346,23.99,111.1843,27.94,28.86,16.75,0,111.2,13.16,28.79,268.6
"2010-06-05 00:42:00",173344,8.72,306.6,0.975,0.21,23.87,111.186,27.94,28.85,16.72,0,111.2,13.16,28.79,268.6
"2010-06-05 00:42:30",173345,8.42,303.3,1.113,0.25,23.89,111.186,27.94,28.86,16.54,0,111.2,13.16,28.79,265.3
"2010-06-05 00:43:00",173346,8.18,297.9,3.217,0.238,23.84,111.186,27.94,28.88,16.55,0,111.2,13.15,28.79,259.9
"2010-06-05 00:43:30",173347,8.35,297.1,2,0.23,23.81,111.1899,27.95,28.87,16.5,0,111.2,13.15,28.80,259.1
"2010-06-05 00:44:00",173348,9.04,297.5,2.355,0.35,23.77,111.1944,27.96,28.88,16.61,0,111.2,13.15,28.81,259.5
"2010-06-05 00:44:30",173349,9.52,302.2,3.66,0.391,23.8,111.1992,27.98,28.88,16.54,0,111.2,13.15,28.83,264.2
"2010-06-05 00:45:00",173350,9.09,305.5,1.899,0.222,23.88,111.2076,28,28.89,16.37,0,111.2,13.15,28.85,267.5
"2010-06-05 00:45:30",173351,8.85,307.1,1.817,0.144,23.84,111.2169,28.02,28.9,16.3,0,111.2,13.15,28.87,269.1
"2010-06-05 00:46:00",173352,8.95,304.1,1.319,0.356,23.68,111.2194,28.03,28.9,16.57,0,111.2,13.15,28.88,266.1
"2010-06-05 00:46:30",173353,9.24,303.5,2.776,0.231,23.75,111.2185,28.03,28.92,16.55,0,111.2,13.15,28.88,265.5
"2010-06-05 00:47:00",173354,8.99,308.4,2.56,0.265,23.83,111.2028,27.99,28.91,16.71,0,111.2,13.15,28.84,270.4
"2010-06-05 00:47:30",173355,8.47,305,1.371,0.214,23.88,111.1922,27.96,28.9,16.75,0,111.2,13.15,28.81,267.0
"2010-06-05 00:48:00",173356,8.12,307.6,2.219,0.297,23.89,111.186,27.94,28.88,16.87,0,111.2,13.15,28.79,269.6
"2010-06-05 00:48:30",173357,8.01,307.8,2.787,0.301,23.85,111.1767,27.92,28.86,17.07,0,111.2,13.15,28.77,269.8
"2010-06-05 00:49:00",173358,8.71,307.1,2.643,0.272,23.86,111.1537,27.86,28.84,17.05,0,111.2,13.15,28.71,269.1
"2010-06-05 00:49:30",173359,9.97,310.4,1.542,0.277,23.93,111.1526,27.86,28.81,16.92,0,111.2,13.15,28.71,272.4
"2010-06-05 00:50:00",173360,9.51,305.9,1.559,0.4,24.02,111.1529,27.86,28.8,16.93,0,111.2,13.15,28.71,267.9
"2010-06-05 00:50:30",173361,10.07,307.3,2.125,0.193,24.15,111.1533,27.86,28.81,16.87,0,111.2,13.15,28.71,269.3
"2010-06-05 00:51:00",173362,9.61,307.1,1.4,0.136,24.05,111.1556,27.87,28.79,17.01,0,111.2,13.15,28.71,269.1
"2010-06-05 00:51:30",173363,9.46,306.5,1.583,0.3,24.11,111.1469,27.84,28.78,17.02,0,111.2,13.15,28.69,268.5
"2010-06-05 00:52:00",173364,9.4,304.9,2.154,0.317,24.17,111.1466,27.84,28.78,16.97,0,111.2,13.15,28.69,266.9
"2010-06-05 00:52:30",173365,9.45,302.7,0.961,0.141,24.25,111.146,27.84,28.77,16.86,0,111.2,13.15,28.69,264.7
"2010-06-05 00:53:00",173366,9.15,307,2.012,0.212,24.24,111.1474,27.84,28.78,16.91,0,111.2,13.15,28.69,269.0
"2010-06-05 00:53:30",173367,9.14,309.3,1.199,0.241,24.23,111.1492,27.85,28.76,16.97,0,111.2,13.15,28.70,271.3
"2010-06-05 00:54:00",173368,9.69,310.4,1.344,0.264,24.01,111.1475,27.84,28.76,17.03,0,111.2,13.15,28.69,272.4
"2010-06-05 00:54:30",173369,9.9,308.6,2.282,0.323,23.88,111.1472,27.84,28.76,17.08,0,111.2,13.15,28.69,270.6
"2010-06-05 00:55:00",173370,8.87,310.1,1.637,0.351,23.87,111.1478,27.85,28.75,17.05,0,111.2,13.16,28.69,272.1
"2010-06-05 00:55:30",173371,8.19,310.7,2.258,0.532,23.79,111.1481,27.85,28.76,17.14,0,111.2,13.15,28.69,272.7
"2010-06-05 00:56:00",173372,9.95,307.1,1.414,0.417,23.87,111.1483,27.85,28.75,17.06,0,111.2,13.15,28.70,269.1
"2010-06-05 00:56:30",173373,9.46,311.3,3.143,0.334,23.73,111.1498,27.85,28.76,17.23,0,111.2,13.15,28.70,273.3
"2010-06-05 00:57:00",173374,8.95,311.8,2.18,0.26,23.75,111.1466,27.84,28.77,17.37,0,111.2,13.15,28.69,273.8
"2010-06-05 00:57:30",173375,9.99,307.3,1.533,0.342,23.93,111.1467,27.84,28.75,17.21,0,111.2,13.15,28.69,269.3
"2010-06-05 00:58:00",173376,10.49,307.8,1.815,0.156,23.94,111.1467,27.84,28.75,17.13,0,111.2,13.15,28.69,269.8
"2010-06-05 00:58:30",173377,10.15,308.4,2.082,0.293,24.03,111.1467,27.84,28.75,17.2,0,111.2,13.15,28.69,270.4
"2010-06-05 00:59:00",173378,9.84,307.7,1.643,0.173,24.09,111.147,27.84,28.76,17.19,0,111.2,13.15,28.69,269.7
"2010-06-05 00:59:30",173379,9.76,309,1.1,0.186,24.09,111.147,27.84,28.75,17.19,0,111.2,13.15,28.69,271.0
"2010-06-05 01:00:00",173380,9.88,310.2,0.59,0.127,24.12,111.1467,27.84,28.73,17.21,0,111.2,13.15,28.69,272.2
"2010-06-05 01:00:30",173381,9.66,310.1,1.047,0.143,24.11,111.1474,27.84,28.74,17.27,0,111.2,13.15,28.69,272.1
"2010-06-05 01:01:00",173382,10.19,310,0.556,0.383,24.09,111.1462,27.84,28.73,17.31,0,111.2,13.16,28.69,272.0
"2010-06-05 01:01:30",173383,10.43,310.9,1.394,0.159,24.13,111.1451,27.84,28.73,17.19,0,111.2,13.16,28.69,272.9
"2010-06-05 01:02:00",173384,10.23,308.9,1.145,0.285,24.11,111.1434,27.83,28.72,17.17,0,111.2,13.16,28.68,270.9
"2010-06-05 01:02:30",173385,10.11,311.2,1.605,0.218,24.04,111.1442,27.84,28.72,17.25,0,111.2,13.16,28.68,273.2
"2010-06-05 01:03:00",173386,10.11,308,1.052,0.168,24.1,111.1468,27.84,28.72,17.22,0,111.2,13.16,28.69,270.0
"2010-06-05 01:03:30",173387,10.14,310,0.892,0.13,24.08,111.1474,27.84,28.71,17.18,0,111.2,13.16,28.69,272.0
"2010-06-05 01:04:00",173388,10.1,308.5,1.39,0.247,24.15,111.148,27.85,28.72,17.09,0,111.2,13.16,28.69,270.5
"2010-06-05 01:04:30",173389,9.9,308.2,2.077,0.201,24.18,111.1474,27.84,28.72,17.12,0,111.2,13.16,28.69,270.2
"2010-06-05 01:05:00",173390,10.2,307.6,1.348,0.439,24.2,111.1487,27.85,28.72,17.13,0,111.2,13.16,28.70,269.6
"2010-06-05 01:05:30",173391,10.41,307,1.627,0.25,24.23,111.1515,27.85,28.74,17.15,0,111.2,13.16,28.70,269.0
"2010-06-05 01:06:00",173392,10.58,304.4,0.764,0.179,24.25,111.151,27.85,28.73,17.15,0,111.2,13.16,28.70,266.4
"2010-06-05 01:06:30",173393,10.61,303.7,0.957,0.182,24.2,111.153,27.86,28.72,17.15,0,111.2,13.16,28.71,265.7
"2010-06-05 01:07:00",173394,11.1,303.5,1.149,0.462,24.2,111.1552,27.86,28.72,16.91,0,111.2,13.16,28.71,265.5
"2010-06-05 01:07:30",173395,11.37,298.7,1.763,0.248,24.25,111.156,27.87,28.73,16.64,0,111.2,13.16,28.72,260.7
"2010-06-05 01:08:00",173396,10.73,301.4,1.564,0.369,24.25,111.156,27.87,28.75,16.76,0,111.2,13.16,28.72,263.4
"2010-06-05 01:08:30",173397,10.57,300.4,1.913,0.527,24.27,111.1563,27.87,28.75,16.75,0,111.2,13.16,28.72,262.4
"2010-06-05 01:09:00",173398,10.05,299.2,1.28,0.195,24.25,111.1577,27.87,28.75,16.81,0,111.2,13.16,28.72,261.2
"2010-06-05 01:09:30",173399,10.09,296,2.231,0.302,24.26,111.1611,27.88,28.76,16.78,0,111.2,13.16,28.73,258.0
"2010-06-05 01:10:00",173400,9.65,295,2.934,0.556,24.15,111.1639,27.89,28.78,16.84,0,111.2,13.16,28.74,257.0
"2010-06-05 01:10:30",173401,9.95,296.4,1.67,0.251,24.15,111.1648,27.89,28.77,16.89,0,111.2,13.16,28.74,258.4
"2010-06-05 01:11:00",173402,9.7,299.1,2.424,0.287,24.16,111.1642,27.89,28.78,16.91,0,111.2,13.16,28.74,261.1
"2010-06-05 01:11:30",173403,9.52,300.2,1.424,0.392,24.19,111.1614,27.88,28.78,16.92,0,111.2,13.16,28.73,262.2
"2010-06-05 01:12:00",173404,9.69,299.3,1.609,0.163,24.15,111.1575,27.87,28.77,16.99,0,111.2,13.16,28.72,261.3
"2010-06-05 01:12:30",173405,9.71,299.5,3.02,0.246,24.15,111.156,27.87,28.76,16.91,0,111.2,13.16,28.72,261.5
"2010-06-05 01:13:00",173406,8.94,298.8,3.16,0.319,24.09,111.156,27.87,28.77,16.9,0,111.2,13.15,28.72,260.8
"2010-06-05 01:13:30",173407,9.42,302.8,1.121,0.772,24.04,111.156,27.87,28.76,16.88,0,111.2,13.16,28.72,264.8
"2010-06-05 01:14:00",173408,10.52,302.8,1.634,0.201,24.02,111.156,27.87,28.77,16.62,0,111.2,13.15,28.72,264.8
"2010-06-05 01:14:30",173409,10.48,301.8,2.304,0.423,23.99,111.156,27.87,28.78,16.79,0,111.2,13.15,28.72,263.8
"2010-06-05 01:15:00",173410,10.62,300.5,2.34,0.52,24.13,111.16,27.88,28.78,16.71,0,111.2,13.15,28.73,262.5
"2010-06-05 01:15:30",173411,10.66,300,0.706,0.134,24,111.1698,27.9,28.77,16.67,0,111.2,13.15,28.75,262.0
"2010-06-05 01:16:00",173412,10.58,299.4,0.494,0.134,24.01,111.1874,27.95,28.78,16.64,0,111.2,13.15,28.80,261.4
"2010-06-05 01:16:30",173413,10.03,300.6,0.609,0.278,24.01,111.1885,27.95,28.79,16.62,0,111.2,13.15,28.80,262.6
"2010-06-05 01:17:00",173414,10.01,302.1,0.636,0.23,24.09,111.1882,27.95,28.8,16.58,0,111.2,13.15,28.80,264.1
"2010-06-05 01:17:30",173415,10.07,302.5,0.445,0.124,24.16,111.1885,27.95,28.8,16.59,0,111.2,13.15,28.80,264.5
"2010-06-05 01:18:00",173416,10.37,300.8,1.874,0.347,24.27,111.1891,27.95,28.8,16.56,0,111.2,13.15,28.80,262.8
"2010-06-05 01:18:30",173417,10.34,300.4,1.682,0.251,24.32,111.1894,27.95,28.81,16.54,0,111.2,13.16,28.80,262.4
"2010-06-05 01:19:00",173418,10.23,303.5,0.903,0.165,24.33,111.1894,27.95,28.8,16.55,0,111.2,13.16,28.80,265.5
"2010-06-05 01:19:30",173419,10.91,301.1,1.016,0.224,24.3,111.1897,27.95,28.81,16.57,0,111.2,13.16,28.80,263.1
"2010-06-05 01:20:00",173420,10.85,301.9,0.71,0.121,24.27,111.1892,27.95,28.81,16.58,0,111.2,13.16,28.80,263.9
"2010-06-05 01:20:30",173421,10.56,301.6,0.857,0.129,24.28,111.183,27.94,28.82,16.62,0,111.2,13.16,28.78,263.6
"2010-06-05 01:21:00",173422,10.5,301.8,0.952,0.23,24.3,111.1676,27.9,28.81,16.69,0,111.2,13.16,28.75,263.8
"2010-06-05 01:21:30",173423,9.56,303.9,2.098,0.385,24.28,111.1642,27.89,28.79,16.76,0,111.2,13.16,28.74,265.9
"2010-06-05 01:22:00",173424,9.93,302.8,1.182,0.188,24.31,111.1566,27.87,28.81,16.72,0,111.2,13.16,28.72,264.8
"2010-06-05 01:22:30",173425,9.74,304.1,1.499,0.159,24.24,111.156,27.87,28.8,16.77,0,111.2,13.16,28.72,266.1
"2010-06-05 01:23:00",173426,10.1,305.1,1.817,0.12,24.34,111.156,27.87,28.78,16.7,0,111.2,13.16,28.72,267.1
"2010-06-05 01:23:30",173427,10.2,303.4,1.526,0.136,24.34,111.156,27.87,28.77,16.65,0,111.2,13.16,28.72,265.4
"2010-06-05 01:24:00",173428,9.62,303.7,1.985,0.205,24.27,111.1558,27.87,28.77,16.75,0,111.2,13.16,28.71,265.7
"2010-06-05 01:24:30",173429,9.67,306.7,1.113,0.17,24.29,111.1549,27.86,28.75,16.7,0,111.2,13.16,28.71,268.7
"2010-06-05 01:25:00",173430,9.7,306.2,1.183,0.18,24.28,111.1524,27.86,28.77,16.69,0,111.2,13.16,28.71,268.2
"2010-06-05 01:25:30",173431,9.79,304.6,2.022,0.265,24.37,111.1513,27.85,28.75,16.6,0,111.2,13.16,28.70,266.6
"2010-06-05 01:26:00",173432,10.15,305.6,1.113,0.292,24.32,111.1521,27.86,28.76,16.68,0,111.2,13.16,28.71,267.6
"2010-06-05 01:26:30",173433,10.01,303.9,1.541,0.266,24.33,111.1516,27.85,28.77,16.68,0,111.2,13.16,28.70,265.9
"2010-06-05 01:27:00",173434,9.8,305.3,1.689,0.18,24.28,111.1499,27.85,28.76,16.78,0,111.2,13.16,28.70,267.3
"2010-06-05 01:27:30",173435,10.22,305.5,1.431,0.215,24.25,111.1451,27.84,28.75,16.84,0,111.2,13.16,28.69,267.5
"2010-06-05 01:28:00",173436,9.83,304.1,1.136,0.191,24.25,111.1325,27.81,28.74,16.9,0,111.2,13.16,28.65,266.1
"2010-06-05 01:28:30",173437,9.61,304.2,1.322,0.181,24.33,111.1252,27.79,28.75,16.81,0,111.2,13.16,28.64,266.2
"2010-06-05 01:29:00",173438,9.29,305.5,1.612,0.236,24.32,111.1232,27.78,28.75,16.81,0,111.2,13.16,28.63,267.5
"2010-06-05 01:29:30",173439,9.62,305.1,1.401,0.264,24.37,111.1223,27.78,28.73,16.76,0,111.2,13.16,28.63,267.1
"2010-06-05 01:30:00",173440,9.04,303.9,2.11,0.323,24.33,111.1243,27.78,28.71,16.78,0,111.2,13.16,28.63,265.9
"2010-06-05 01:30:30",173441,8.44,305.4,1.039,0.218,24.33,111.1237,27.78,28.73,16.8,0,111.2,13.16,28.63,267.4
"2010-06-05 01:31:00",173442,8.49,302.9,1.729,0.216,24.29,111.1223,27.78,28.72,16.88,0,111.2,13.15,28.63,264.9
"2010-06-05 01:31:30",173443,8.2,306.1,0.703,0.083,24.28,111.1223,27.78,28.72,17.01,0,111.2,13.15,28.63,268.1
"2010-06-05 01:32:00",173444,7.98,306.4,2.988,0.2,24.16,111.1223,27.78,28.71,17.04,0,111.2,13.16,28.63,268.4
"2010-06-05 01:32:30",173445,8.38,305.5,1.485,0.409,24.06,111.1223,27.78,28.7,17.08,0,111.2,13.15,28.63,267.5
"2010-06-05 01:33:00",173446,8.16,306.8,1.901,0.255,24.11,111.1201,27.77,28.7,17.13,0,111.2,13.16,28.62,268.8
"2010-06-05 01:33:30",173447,8.49,308.3,1.857,0.407,24.22,111.1063,27.74,28.69,17.05,0,111.2,13.16,28.59,270.3
"2010-06-05 01:34:00",173448,8.43,308,1.867,0.228,24.22,111.1021,27.73,28.68,17.08,0,111.2,13.16,28.58,270.0
"2010-06-05 01:34:30",173449,8.19,308.8,1.194,0.269,24.2,111.098,27.72,28.67,17.2,0,111.2,13.16,28.57,270.8
"2010-06-05 01:35:00",173450,8.45,306.9,1.785,0.445,24.25,111.0924,27.7,28.66,17.09,0,111.2,13.16,28.55,268.9
"2010-06-05 01:35:30",173451,8.72,306.8,2.316,0.295,24.23,111.0893,27.69,28.65,17.11,0,111.2,13.16,28.54,268.8
"2010-06-05 01:36:00",173452,8.18,307.3,1.789,0.427,24.23,111.0896,27.7,28.66,17.21,0,111.2,13.16,28.54,269.3
"2010-06-05 01:36:30",173453,7.928,308.5,1.909,0.642,24.24,111.0918,27.7,28.64,17.17,0,111.2,13.16,28.55,270.5
"2010-06-05 01:37:00",173454,8.02,305.5,2.645,0.453,24.23,111.0924,27.7,28.62,17.19,0,111.2,13.16,28.55,267.5
"2010-06-05 01:37:30",173455,8.31,307,1.992,0.151,24.2,111.0936,27.71,28.63,17.27,0,111.2,13.16,28.55,269.0
"2010-06-05 01:38:00",173456,8.96,312.2,1.422,0.254,24.26,111.0932,27.7,28.62,17.25,0,111.2,13.16,28.55,274.2
"2010-06-05 01:38:30",173457,8.78,310.3,1.437,0.211,24.29,111.0881,27.69,28.62,17.12,0,111.2,13.17,28.54,272.3
"2010-06-05 01:39:00",173458,9.65,306.6,3.301,0.362,24.38,111.0966,27.71,28.61,16.93,0,111.2,13.17,28.56,268.6
"2010-06-05 01:39:30",173459,9.84,305.4,3.087,0.333,24.36,111.1034,27.73,28.6,16.93,0,111.1,13.17,28.58,267.4
"2010-06-05 01:40:00",173460,9.42,303.2,1.673,0.348,24.35,111.1042,27.73,28.61,16.92,0,111.2,13.17,28.58,265.2
"2010-06-05 01:40:30",173461,9.05,306.6,2.889,0.41,24.3,111.1064,27.74,28.63,17.04,0,111.1,13.17,28.59,268.6
"2010-06-05 01:41:00",173462,8.89,308.3,1.618,0.216,24.29,111.1061,27.74,28.62,17.01,0,111.1,13.17,28.59,270.3
"2010-06-05 01:41:30",173463,9.35,308.5,1.006,0.182,24.29,111.1086,27.74,28.62,17,0,111.1,13.17,28.59,270.5
"2010-06-05 01:42:00",173464,9.57,309.4,0.571,0.09,24.35,111.1099,27.75,28.62,16.97,0,111.1,13.17,28.60,271.4
"2010-06-05 01:42:30",173465,9.64,307.6,1.288,0.189,24.41,111.1099,27.75,28.62,16.81,0,111.1,13.17,28.60,269.6
"2010-06-05 01:43:00",173466,9.59,305.2,1.574,0.311,24.38,111.112,27.75,28.63,16.76,0,111.1,13.17,28.60,267.2
"2010-06-05 01:43:30",173467,8.96,303.5,1.883,0.149,24.37,111.114,27.76,28.63,16.73,0,111.1,13.17,28.61,265.5
"2010-06-05 01:44:00",173468,8.7,306.5,2.389,0.312,24.37,111.1197,27.77,28.64,16.75,0,111.1,13.17,28.62,268.5
"2010-06-05 01:44:30",173469,8.32,306.5,1.373,0.34,24.36,111.1239,27.78,28.66,16.78,0,111.1,13.17,28.63,268.5
"2010-06-05 01:45:00",173470,8.35,306.7,2.291,0.273,24.39,111.1258,27.79,28.66,16.72,0,111.1,13.17,28.64,268.7
"2010-06-05 01:45:30",173471,8.76,307.1,3.179,0.247,24.29,111.1365,27.82,28.68,16.76,0,111.1,13.17,28.66,269.1
"2010-06-05 01:46:00",173472,8.39,311.3,0.923,0.093,24.19,111.1376,27.82,28.66,16.86,0,111.1,13.17,28.67,273.3
"2010-06-05 01:46:30",173473,8.74,314.2,1.442,0.274,24.23,111.1395,27.82,28.67,16.81,0,111.1,13.17,28.67,276.2
"2010-06-05 01:47:00",173474,8.84,311.1,1.086,0.281,24.25,111.1449,27.84,28.68,16.78,0,111.1,13.17,28.69,273.1
"2010-06-05 01:47:30",173475,8.63,310.5,1.881,0.206,24.26,111.1451,27.84,28.68,16.85,0,111.1,13.16,28.69,272.5
"2010-06-05 01:48:00",173476,8.95,311.5,1.26,0.271,24.31,111.1429,27.83,28.68,16.85,0,111.1,13.16,28.68,273.5